Wind_Speed
20 21 22 21 21 20 19 17 17 25 33 34 32 31 28 26 23 18 15 14 12 10 8 6 5 4 3 3 3 5 6 6 6 6 6 6 7 8 9 10 11 11 12 11 9 10 10 9 8 7 6 6 7 8 8 9 8 6 6 9 11 9 7 7 6 5 5 3 2 3 3 3 3 2 2 2 2 3 3 3 4 5 6 6 7
22 22 22 20 20 19 19 18 19 26 33 34 34 32 28 26 22 18 15 14 12 10 8 6 5 4 3 2 2 5 6 7 7 6 6 6 6 7 8 9 10 11 13 12 10 10 9 9 8 7 7 7 7 7 7 8 8 6 7 11 14 13 10 7 5 4 5 4 3 3 3 3 3 2 3 3 3 3 4 5 5 6 7 8 9
22 22 20 18 20 21 22 22 22 27 33 35 34 31 28 26 22 18 16 14 12 10 8 6 5 4 3 2 2 4 5 6 7 6 6 7 7 8 8 7 9 12 13 12 12 10 9 9 8 8 8 8 7 6 6 6 6 6 7 9 14 16 12 8 5 5 6 4 3 3 2 4 4 4 4 5 6 6 6 7 8 8 9 9 10
22 20 19 20 23 24 24 23 24 29 34 35 34 31 28 25 22 19 17 15 13 11 8 6 4 4 3 2 2 3 5 6 7 7 7 7 7 8 8 8 10 13 14 13 12 10 10 9 8 9 8 8 7 7 6 6 6 6 6 6 11 14 11 8 7 5 5 5 5 6 5 5 8 8 7 6 8 10 9 9 10 11 12 11 11
21 20 21 24 25 24 24 23 24 30 36 36 33 31 28 25 23 20 18 16 13 11 8 6 5 4 3 2 1 2 4 6 7 7 7 7 7 8 9 10 11 14 14 14 13 11 10 9 8 8 8 7 7 7 7 8 8 8 6 5 8 11 9 10 10 8 7 5 6 9 9 8 9 12 12 9 9 11 12 13 13 13 14 15 13
20 20 23 26 25 23 23 24 27 33 37 36 34 31 28 26 25 22 19 17 14 11 9 7 5 4 3 2 1 2 4 6 7 8 8 8 8 8 10 11 12 13 13 14 13 11 11 10 8 8 8 7 8 8 8 9 10 9 8 7 8 10 11 12 12 11 10 8 7 9 12 12 9 9 13 14 12 12 13 14 15 15 15 16 15
19 22 25 26 26 23 23 26 30 34 36 35 34 32 30 28 26 24 21 18 16 13 10 8 7 5 4 3 2 3 4 6 8 9 9 9 9 9 10 11 11 11 11 12 12 11 10 10 9 9 9 10 10 9 10 10 10 8 7 9 11 10 9 10 11 13 12 11 10 9 10 14 12 9 11 15 15 15 15 13 15 17 18 17 16
20 23 26 26 25 24 25 28 30 34 36 35 34 32 31 29 27 24 21 19 17 15 12 10 9 7 6 5 5 4 5 6 7 9 10 10 10 10 11 11 11 11 10 10 11 11 10 10 9 9 9 9 8 8 8 8 9 8 7 11 13 11 9 9 10 12 12 11 12 10 10 13 15 13 13 13 12 14 17 18 17 18 19 19 20
19 21 23 25 25 25 27 29 30 33 36 36 34 32 31 30 27 24 22 20 18 16 15 13 11 11 10 9 8 5 5 6 7 10 11 11 11 11 12 11 11 11 10 8 9 9 8 8 7 6 6 6 6 7 8 9 10 10 9 11 14 13 12 13 12 11 12 11 12 12 12 14 16 16 15 14 12 12 16 20 20 20 20 21 22
21 21 22 26 27 26 28 29 31 36 38 36 35 33 32 30 28 25 23 21 20 18 17 16 15 15 13 11 9 6 5 6 8 10 11 11 13 13 13 12 11 11 10 9 9 9 7 6 6 6 7 8 9 10 11 11 13 13 12 12 13 13 13 13 13 13 14 14 14 15 14 15 15 16 16 16 15 15 17 20 21 22 22 21 22
22 21 22 25 26 26 27 29 32 35 36 34 33 33 31 30 28 26 24 23 23 22 21 20 19 18 15 11 10 9 8 7 9 12 12 13 15 15 15 14 13 12 11 10 10 9 8 8 8 9 10 11 12 13 13 14 14 14 14 13 13 14 14 14 14 15 16 16 16 17 16 15 16 17 17 17 18 18 18 20 22 22 22 22 22
20 19 20 23 26 27 28 29 31 32 32 32 31 31 31 30 30 30 28 27 27 25 22 20 20 19 16 13 12 12 10 9 10 12 14 15 17 17 16 16 15 14 12 11 10 10 10 10 11 12 13 13 14 14 14 14 14 14 15 15 16 16 17 17 17 18 18 18 18 18 18 19 19 19 19 20 21 20 19 20 21 21 21 22 23
16 17 20 23 26 27 28 28 29 29 28 29 30 31 31 32 32 30 27 26 25 23 21 21 21 21 19 16 14 14 12 11 12 14 16 18 19 19 18 17 16 16 15 13 12 11 11 12 14 14 14 13 14 14 14 14 14 14 15 16 17 18 19 19 19 20 21 21 21 21 21 22 23 23 23 24 24 24 23 24 24 24 24 25 26
13 15 20 24 26 27 26 24 26 27 28 28 29 29 29 29 28 26 24 24 23 21 21 22 22 21 20 18 17 16 15 14 14 16 18 20 22 21 20 20 18 17 17 16 14 13 13 14 16 17 16 15 14 14 15 15 15 15 16 17 18 19 21 21 21 22 23 24 25 25 24 25 25 25 26 27 26 26 27 27 27 28 27 28 29
13 15 18 22 25 27 27 27 27 28 30 30 29 29 29 28 27 26 24 24 23 23 23 24 24 23 22 22 21 20 20 19 18 20 21 23 24 24 23 23 22 20 19 18 17 15 15 17 18 18 17 17 17 17 17 17 17 18 19 20 20 21 22 23 23 24 25 26 27 27 26 27 27 26 26 26 27 28 29 30 30 30 29 30 31
11 14 16 21 24 25 27 29 30 30 30 30 30 29 28 27 28 28 27 25 25 25 26 26 27 27 26 26 26 25 25 25 24 25 25 26 27 27 26 27 26 25 23 21 19 18 18 19 20 19 19 18 19 19 20 21 21 22 23 23 23 23 24 24 26 27 27 26 26 26 26 27 27 27 26 26 27 29 30 31 32 31 32 33 33
10 12 16 20 22 25 28 29 29 30 30 29 28 28 27 26 26 27 27 27 27 27 26 27 27 28 30 30 29 29 29 29 29 28 26 28 29 29 29 30 31 29 27 24 23 22 20 18 18 20 21 20 21 23 24 25 26 26 27 28 28 27 26 26 27 27 26 26 25 25 26 27 27 27 27 27 28 29 31 32 32 32 34 35 35
8 12 16 19 21 23 27 29 29 30 30 28 26 26 26 25 23 22 22 23 22 21 21 21 22 23 25 26 26 26 26 26 26 24 25 27 29 31 32 33 33 32 30 29 27 24 21 18 17 21 23 23 24 26 27 29 30 30 31 31 30 30 29 29 29 27 26 26 26 25 26 27 28 28 28 28 29 30 31 32 32 33 35 36 37
4 6 10 15 18 17 19 23 24 25 26 27 26 25 23 21 19 17 16 15 15 15 15 15 14 13 14 14 15 16 18 19 20 22 25 28 30 33 36 36 35 33 32 30 28 26 24 22 22 24 26 27 28 29 30 31 32 32 33 33 33 34 33 33 32 29 27 28 28 27 28 29 30 30 30 30 31 32 34 34 35 35 36 37 39
2 3 3 7 10 9 11 15 16 16 18 20 21 20 18 15 13 13 13 11 9 9 10 11 10 9 8 7 7 8 9 11 14 19 22 24 26 28 30 31 31 30 29 28 27 26 27 26 26 27 29 29 30 30 31 32 32 34 35 35 35 35 34 33 32 30 30 30 31 31 32 32 32 33 34 35 36 37 38 38 38 38 38 40 42
5 6 6 6 7 7 7 9 9 11 13 15 16 15 13 13 14 13 12 11 10 9 9 10 9 9 8 7 6 6 7 8 10 13 16 17 18 19 19 20 22 23 23 25 26 27 29 30 29 28 28 28 28 28 28 29 31 31 32 32 33 33 33 33 32 32 33 33 34 35 36 36 37 37 38 38 39 41 41 40 40 40 42 44 47
10 12 13 13 12 11 11 9 9 10 11 12 13 14 13 13 13 12 12 12 11 9 9 9 8 8 8 7 7 7 8 9 10 11 12 13 14 15 16 17 19 20 22 25 26 27 29 30 27 25 24 25 25 27 28 29 30 30 30 30 32 33 34 35 35 35 35 36 37 39 39 40 40 41 41 42 42 43 45 45 45 45 45 45 45
16 18 19 19 16 14 13 12 11 12 12 11 12 13 13 13 12 12 13 13 12 10 9 8 7 8 8 8 8 8 8 9 9 9 10 11 12 12 13 15 17 19 21 22 23 23 25 25 24 23 24 25 26 28 29 30 31 32 33 33 34 35 36 37 38 38 39 39 40 41 41 41 42 42 42 43 42 43 45 47 48 48 44 41 39
16 15 16 17 16 15 15 14 13 13 12 12 11 11 11 11 10 10 10 9 8 8 7 8 8 8 7 8 8 8 9 11 10 9 9 10 11 12 13 14 16 17 19 20 21 22 23 25 26 26 27 28 29 30 31 32 33 34 34 35 36 37 38 39 39 40 40 40 40 39 39 38 39 39 40 40 40 42 43 44 45 44 40 37 37
15 14 14 14 15 15 15 14 13 12 11 10 9 8 8 7 6 6 5 5 6 8 9 9 9 9 9 9 9 9 11 11 10 10 11 13 13 14 15 16 17 19 20 21 22 23 25 26 28 29 30 31 31 31 32 33 33 34 34 34 35 35 36 36 37 37 37 37 37 35 34 34 35 36 37 37 37 37 37 37 38 37 36 36 37
17 16 16 15 15 15 14 13 12 10 9 8 7 6 6 6 6 6 7 8 9 9 10 11 11 11 12 11 12 13 13 11 9 12 15 16 16 17 18 19 20 21 22 22 23 25 26 27 28 29 30 30 31 31 31 31 31 32 31 31 32 32 32 33 33 34 35 35 34 34 33 33 34 35 36 36 36 36 35 34 34 34 35 36 37
18 18 17 17 16 15 14 12 11 10 8 7 7 7 7 7 8 8 9 9 9 10 10 11 11 12 12 13 14 15 13 11 12 15 17 17 18 19 19 20 21 22 22 23 23 24 24 25 26 27 27 28 28 28 28 28 28 28 28 28 29 29 30 31 32 33 35 34 33 32 31 31 33 34 35 35 36 36 35 34 34 34 35 36 37
13 14 15 15 15 13 12 11 9 8 8 7 7 7 8 8 9 9 9 10 10 10 10 11 12 12 12 14 16 15 14 14 16 17 18 18 19 20 20 20 21 21 21 22 22 22 22 22 23 23 23 24 24 24 25 25 25 25 26 26 26 27 28 29 30 32 34 33 32 31 30 31 32 34 35 35 35 35 34 34 34 34 35 35 36
9 10 10 10 10 10 9 8 7 7 7 8 8 9 9 10 11 11 11 12 12 11 12 13 13 13 13 15 16 16 15 16 16 17 17 18 19 19 19 19 19 19 19 19 19 19 19 19 19 19 20 21 22 22 23 23 23 23 23 24 24 25 26 28 30 32 33 33 31 30 30 31 32 33 35 35 34 33 33 33 34 34 34 35 36
8 9 8 8 8 8 7 7 7 6 7 7 8 9 9 10 11 11 11 12 12 13 13 14 14 14 14 15 16 16 15 15 15 15 15 15 16 16 16 16 17 17 16 16 16 17 17 17 18 18 18 19 21 21 21 21 21 21 21 22 23 24 25 27 29 31 32 32 32 30 30 31 31 31 33 34 34 33 33 33 34 34 34 35 37
4 4 5 5 5 5 5 5 5 6 6 7 8 8 9 9 10 10 11 11 12 12 13 13 14 14 14 14 14 14 14 13 13 13 13 13 13 13 14 14 14 15 15 15 15 16 16 17 17 17 18 19 20 20 19 18 19 20 20 21 22 24 25 27 29 30 31 32 31 30 30 30 30 29 30 32 33 33 34 34 33 33 34 35 36
2 2 3 3 2 2 3 4 5 6 7 8 8 9 9 9 10 10 11 11 12 12 13 13 13 13 13 12 12 12 11 11 11 11 11 12 12 12 13 13 13 13 14 14 14 15 15 15 16 16 17 19 19 18 18 18 20 21 22 23 24 25 27 28 29 30 30 31 31 31 30 30 29 29 30 31 32 33 33 34 33 33 33 33 34
2 3 4 4 4 4 5 5 6 7 8 8 9 9 9 9 9 10 11 11 12 12 12 12 12 11 11 10 10 10 10 10 10 11 11 11 11 11 11 11 11 11 12 12 13 13 14 15 16 16 17 19 19 19 19 20 21 22 23 25 26 28 29 30 29 29 29 29 30 31 30 30 29 29 29 29 30 31 31 31 32 32 32 32 32
4 4 5 6 6 7 7 7 7 8 9 10 10 10 10 10 10 11 11 12 12 12 12 11 10 10 9 9 9 9 9 9 9 9 9 9 9 9 9 9 10 10 11 12 13 14 15 15 16 17 18 19 20 21 22 22 22 23 24 26 27 29 30 30 29 29 29 29 29 29 30 29 28 27 26 26 27 27 27 28 29 29 29 29 28
8 7 7 8 8 8 7 8 9 10 10 10 11 12 11 10 10 11 12 13 13 12 11 10 9 9 9 9 8 8 8 8 8 8 8 8 8 9 9 10 10 11 12 13 14 15 16 17 18 18 19 20 22 23 23 24 24 25 25 26 27 28 29 29 29 28 27 27 27 27 27 26 25 23 22 22 21 22 23 24 25 25 24 23 22
9 8 8 8 8 8 7 7 8 10 10 10 10 10 9 9 10 11 11 11 11 11 9 8 8 8 8 8 7 7 7 7 8 8 8 9 9 10 11 12 12 13 14 15 16 17 17 18 19 20 21 21 22 23 24 25 25 26 26 26 26 26 27 27 27 27 25 25 25 25 24 22 20 18 18 19 19 19 20 21 21 19 18 18 18
9 9 9 9 9 9 8 7 7 8 9 9 8 7 6 7 9 9 8 6 7 9 9 7 6 7 7 7 6 6 7 7 7 8 8 9 10 11 12 13 14 15 15 16 16 17 18 19 20 21 21 22 23 23 24 25 25 25 26 25 24 24 25 26 25 25 24 23 22 20 18 16 16 16 18 19 19 18 17 18 17 16 15 14 15
8 8 9 10 10 10 9 7 7 8 10 10 9 7 7 7 8 9 7 6 7 10 11 7 5 6 7 6 6 6 6 6 7 8 9 10 11 12 13 14 14 15 15 16 16 17 19 20 21 22 23 23 24 24 24 24 24 24 24 23 23 23 24 23 22 20 18 17 15 13 13 13 15 16 17 17 16 16 14 14 13 13 11 11 11
8 8 9 9 9 9 9 8 8 9 11 11 10 9 9 9 9 9 9 8 10 12 10 7 5 6 6 6 6 6 6 6 7 9 10 11 11 12 12 12 13 14 15 16 17 18 20 21 21 22 23 24 24 24 23 23 22 22 21 21 21 20 19 17 16 14 11 9 9 10 11 12 12 13 12 12 12 12 11 10 10 9 9 8 9
8 8 9 9 9 9 8 8 10 11 12 11 10 10 10 10 10 10 10 10 11 11 9 7 6 6 6 7 6 6 6 8 9 9 9 9 9 10 11 12 13 14 15 16 18 19 20 20 21 21 22 22 21 21 21 20 19 18 17 15 15 14 13 13 12 10 8 7 7 8 9 9 9 9 10 11 12 12 11 9 8 8 8 8 7
8 8 8 9 9 9 9 10 11 11 11 11 10 10 10 10 11 10 9 10 10 10 8 7 7 7 6 6 7 7 7 7 7 6 6 7 8 9 10 11 13 14 15 16 17 18 18 18 19 19 19 19 19 18 17 16 14 13 11 10 10 11 12 12 11 9 6 5 5 6 7 7 8 8 9 10 11 11 12 10 9 9 9 8 8
8 8 8 8 8 7 8 9 10 10 10 10 10 9 9 9 10 9 9 9 10 9 8 8 8 7 7 7 7 6 5 4 3 4 5 6 7 8 10 11 12 13 14 15 15 16 16 16 16 16 16 16 17 16 14 12 11 9 8 8 9 11 12 11 11 10 8 8 8 8 8 9 9 9 10 10 10 11 12 12 10 9 9 8 8
8 8 9 9 8 7 7 8 10 10 9 8 8 8 9 9 9 10 10 10 10 9 9 8 8 8 8 7 5 4 3 2 2 3 4 5 7 8 10 11 12 12 13 14 14 14 15 15 15 15 15 15 15 13 12 10 8 7 7 8 10 11 12 11 10 10 9 9 9 9 9 10 10 11 11 11 10 11 12 12 12 10 8 7 6
9 7 7 8 8 7 8 10 10 9 8 9 8 8 10 10 11 11 11 10 10 10 9 8 8 8 7 5 4 3 2 1 2 3 5 6 7 9 10 11 12 13 13 13 13 13 14 14 14 13 14 14 13 13 11 10 8 7 7 8 10 11 11 10 10 10 10 11 11 11 11 11 11 12 12 12 11 10 9 9 10 9 8 7 6
10 8 7 8 7 6 7 11 10 8 7 9 9 9 11 12 12 12 11 11 10 10 9 8 8 7 6 5 4 3 1 1 2 4 5 7 8 9 11 12 12 13 13 13 12 12 12 13 12 12 11 11 11 11 11 9 7 6 7 8 9 10 10 10 11 11 12 12 12 12 12 11 11 11 11 10 10 9 7 7 7 8 7 6 6
11 10 9 10 8 5 7 11 12 9 7 8 9 10 11 12 12 12 11 11 10 10 9 8 7 6 6 5 4 2 1 1 3 4 5 7 8 10 11 11 12 12 12 12 11 11 11 11 10 9 9 9 10 10 9 7 6 7 8 9 10 10 11 11 12 12 12 12 12 12 11 10 9 9 9 8 8 7 6 5 6 7 6 6 5
12 12 11 11 10 8 9 12 12 10 8 8 8 8 10 11 12 12 11 11 10 10 9 8 8 7 6 5 3 2 1 1 2 4 5 6 8 9 10 11 11 12 12 11 11 10 10 10 9 7 7 8 10 10 9 8 8 9 10 11 12 12 12 11 11 11 11 11 11 10 9 8 7 7 7 7 7 7 6 6 5 5 5 5 4
13 13 13 13 12 11 11 12 12 10 9 8 7 8 9 9 10 11 11 10 11 10 9 9 8 8 6 5 3 3 2 1 2 3 5 6 7 9 10 10 11 11 11 11 11 10 10 10 9 8 8 8 9 10 11 11 10 11 11 12 11 11 11 10 10 9 9 9 9 9 9 8 7 7 7 7 7 7 6 5 5 5 4 4 4
13 13 12 13 13 12 10 10 11 11 10 8 7 8 8 8 9 9 9 10 10 10 10 10 9 8 7 5 4 3 2 1 2 3 5 6 7 8 9 10 10 11 11 11 11 11 10 10 10 9 9 9 10 10 10 10 10 10 10 10 10 10 10 10 9 9 9 8 8 8 8 8 8 7 7 7 7 6 6 5 5 5 5 5 5
14 14 13 13 13 11 10 9 10 11 11 9 8 8 7 7 7 7 8 9 10 11 11 10 9 8 6 5 4 3 2 1 1 3 4 5 6 7 8 9 9 10 10 11 11 11 11 10 10 10 9 9 9 9 9 9 9 9 9 9 9 9 10 9 9 9 9 8 8 8 8 8 7 7 6 6 5 5 5 4 4 5 5 6 6
14 14 15 15 13 10 9 10 9 7 7 9 10 9 8 7 7 7 8 9 10 10 10 10 8 7 6 5 5 4 2 1 1 2 3 4 6 7 7 8 9 10 10 11 11 11 11 11 11 10 10 10 9 9 9 9 9 9 9 10 10 10 10 10 9 9 9 8 8 7 6 6 6 6 6 6 5 5 5 5 5 6 7 7 7
Wind_Direction
214 211 203 197 197 198 203 207 204 197 195 193 189 186 185 187 187 185 181 176 173 173 165 153 146 145 164 194 216 229 234 233 230 223 216 209 206 214 220 218 212 199 194 196 193 190 194 198 197 200 201 191 188 198 202 202 208 212 202 197 200 211 231 240 259 286 274 252 196 168 174 183 188 189 193 198 202 214 226 231 237 244 247 250 254
220 214 201 194 198 201 204 207 202 195 194 192 187 186 188 189 187 184 182 179 177 175 166 155 146 138 146 176 218 232 235 234 230 222 212 203 200 203 211 214 205 195 192 190 189 188 184 184 188 188 190 187 190 204 208 210 219 213 191 191 199 209 226 237 234 232 236 229 206 195 196 208 207 208 232 246 244 249 263 265 261 261 263 267 270
226 215 201 194 199 202 203 205 201 194 192 190 187 186 189 191 188 185 183 181 180 176 167 157 144 135 144 169 217 237 240 236 232 224 210 198 193 194 201 205 192 187 188 185 184 185 177 178 179 173 183 192 190 196 208 211 214 208 193 187 196 208 223 240 229 207 214 227 240 241 242 255 259 248 248 269 277 271 270 273 273 271 267 269 274
231 213 199 197 199 199 201 203 200 194 191 189 187 188 192 193 191 189 188 186 185 183 177 165 147 137 143 161 218 252 248 239 234 226 211 199 190 186 189 188 181 182 186 184 183 182 179 179 176 175 187 194 189 192 202 194 193 216 218 185 188 204 224 252 261 244 225 231 259 268 260 263 274 272 259 257 270 275 273 269 270 273 274 274 272
230 215 206 203 197 195 201 204 198 191 190 189 188 190 194 195 194 194 194 193 193 193 187 178 168 158 148 155 202 264 263 249 239 228 213 199 189 185 186 185 182 185 188 187 185 183 184 185 183 186 195 197 194 197 202 200 204 221 227 197 188 196 214 244 262 271 266 257 262 268 272 278 277 274 274 267 258 265 273 275 274 273 275 279 280
224 219 215 207 197 196 202 203 196 191 190 190 190 192 197 197 197 198 198 199 201 201 196 192 194 189 173 168 192 259 268 256 244 232 215 199 190 188 190 190 189 191 192 192 190 188 189 192 195 201 204 207 209 207 211 215 219 222 217 211 214 206 205 224 246 261 271 275 269 270 281 289 278 265 281 290 280 269 271 274 281 285 284 284 288
225 221 220 209 198 199 203 202 198 193 192 193 192 194 198 201 202 202 202 204 205 207 208 206 211 216 210 207 212 228 248 248 243 233 218 201 194 191 193 197 197 195 195 194 195 196 196 196 204 210 209 212 216 218 221 224 229 234 214 207 230 239 225 228 241 249 258 267 269 266 273 282 284 279 288 295 295 296 296 291 295 301 301 300 301
225 219 218 208 200 201 200 201 201 197 194 194 194 195 200 204 205 204 204 207 208 212 215 215 222 228 223 224 227 231 248 253 248 238 221 203 194 191 193 197 195 193 195 193 192 198 200 199 207 213 216 222 225 229 239 237 239 248 229 220 244 265 262 256 258 255 256 261 262 261 258 267 278 285 287 287 289 297 300 299 302 304 304 305 306
224 219 214 207 202 200 198 201 204 199 194 193 193 197 204 207 207 206 206 209 213 217 221 224 227 227 224 232 241 248 262 264 253 243 230 211 197 192 193 196 193 192 195 191 189 197 203 206 217 226 234 244 245 243 249 250 250 255 252 251 266 276 271 271 274 267 263 264 264 266 262 260 268 275 279 280 277 270 271 278 288 293 294 295 298
219 218 211 204 202 201 199 201 202 198 196 196 195 197 206 210 209 209 209 209 214 220 223 222 222 225 230 238 244 246 253 255 245 240 234 218 205 197 193 195 196 195 195 193 195 205 211 217 230 240 244 250 254 254 255 256 258 260 257 259 267 271 268 271 272 268 269 271 269 268 265 262 264 267 267 268 265 258 255 261 270 277 281 283 288
212 212 208 203 200 202 203 203 203 203 202 200 198 200 208 211 211 213 213 211 215 220 222 223 227 234 240 240 236 238 245 248 244 241 233 220 212 205 198 198 201 203 203 201 206 218 227 232 239 245 251 255 257 259 260 259 260 262 260 257 256 258 259 260 263 268 271 272 272 271 270 269 267 267 268 266 262 259 256 256 262 269 275 281 284
205 204 202 201 200 202 206 204 202 201 197 194 197 202 208 211 214 216 216 216 219 223 227 229 233 239 244 241 235 237 242 244 244 242 235 224 218 214 207 203 204 208 212 212 215 226 239 247 251 252 256 259 261 262 261 259 259 260 260 257 254 253 254 255 258 262 264 266 267 267 269 272 271 272 274 273 271 270 266 264 265 268 272 278 280
206 198 193 200 203 204 204 200 195 193 190 192 198 205 209 213 217 219 220 223 227 230 231 232 234 238 241 241 236 234 237 241 241 238 231 224 222 221 216 213 212 213 216 217 221 230 241 252 258 260 261 261 262 265 263 259 260 264 266 267 266 264 262 262 263 265 267 268 266 265 267 270 271 273 274 274 274 273 272 271 271 270 271 273 275
214 203 198 202 207 207 206 201 197 198 200 202 204 209 214 218 220 221 222 225 226 227 229 230 233 236 237 236 231 227 229 234 235 234 227 221 221 222 220 221 223 223 219 216 221 231 241 254 261 264 264 261 259 262 263 262 263 266 268 269 270 270 268 267 268 271 273 273 272 271 271 271 272 273 273 274 274 273 272 271 271 271 273 275 276
224 211 207 206 207 210 210 208 209 211 211 209 209 213 217 220 222 221 219 220 221 223 226 230 234 234 234 234 231 228 230 233 234 235 228 221 222 224 222 222 226 227 222 219 223 230 236 246 254 260 264 266 268 269 268 269 270 271 272 272 272 273 270 268 268 269 270 271 271 271 270 271 273 273 273 274 274 273 272 271 270 270 273 275 276
223 217 217 214 212 212 209 207 209 214 214 212 213 216 218 219 221 219 217 218 221 224 228 232 235 235 235 236 233 232 236 241 247 249 237 223 222 225 224 224 226 226 224 224 229 236 241 243 248 256 262 265 269 271 271 273 275 276 278 279 278 278 275 271 268 268 269 269 269 270 270 271 272 273 274 274 273 273 273 272 272 273 274 275 276
194 201 208 212 214 216 216 213 211 214 217 216 215 215 214 212 212 213 216 220 225 230 234 238 241 241 241 243 242 242 245 249 255 255 240 225 224 228 229 229 230 230 231 233 233 237 245 250 254 262 270 272 273 276 278 279 280 280 281 281 280 279 277 273 270 270 272 273 272 273 273 273 273 274 274 273 272 272 272 272 273 274 274 274 276
211 206 203 203 205 208 213 214 213 215 218 219 219 218 219 218 217 219 223 225 228 234 239 243 246 247 248 249 251 252 252 253 251 242 228 223 228 232 234 234 234 237 242 245 243 242 248 258 265 271 277 279 279 280 281 282 283 284 283 283 281 279 278 278 277 275 275 275 274 272 271 271 274 276 275 274 272 270 270 271 272 272 273 275 278
243 220 208 206 206 203 204 207 210 215 219 221 222 223 225 226 222 218 218 218 222 227 230 232 234 238 242 245 247 248 248 246 240 230 224 227 230 234 238 240 240 244 248 249 251 254 258 263 269 273 277 279 279 280 281 282 283 284 284 284 283 282 281 280 278 275 272 273 273 272 272 274 275 276 276 274 273 272 272 273 272 272 273 275 277
123 147 164 196 206 209 207 204 207 214 218 218 218 218 218 212 197 186 184 183 187 198 203 202 199 201 208 214 224 234 235 236 234 230 230 234 237 240 244 244 244 246 246 245 251 261 267 269 273 276 278 279 281 282 282 282 282 283 284 285 284 283 280 278 276 275 275 276 277 277 277 277 277 276 276 275 274 274 274 273 272 272 273 275 277
139 146 143 150 158 163 173 179 184 189 190 192 195 194 189 182 173 165 163 161 162 169 177 181 183 189 197 204 216 230 235 233 230 228 231 237 240 243 245 243 241 243 246 250 258 267 271 273 275 277 278 279 281 281 281 281 282 284 284 284 283 282 280 279 278 279 279 279 280 279 279 279 278 278 278 278 278 278 277 275 273 272 274 278 281
164 161 153 147 144 142 144 148 154 159 161 170 176 171 168 173 173 165 161 162 165 174 183 190 197 205 211 216 221 228 235 236 234 234 237 241 244 246 247 246 247 249 254 259 263 266 269 272 275 278 279 278 278 279 281 282 284 285 284 282 281 281 281 282 282 280 279 278 278 277 278 278 278 278 279 279 280 280 280 279 277 276 277 280 282
168 163 153 148 150 152 152 154 153 152 155 162 163 161 168 179 178 166 161 161 163 173 185 192 202 208 208 208 214 222 232 234 231 233 240 244 247 250 251 251 254 256 258 261 264 265 269 275 279 279 277 277 277 278 280 281 282 282 282 281 281 281 281 281 281 280 279 278 278 278 278 278 278 278 278 277 277 277 277 278 279 281 282 283 282
166 161 151 147 150 152 151 153 153 152 154 156 153 156 168 177 174 166 163 162 168 185 202 213 219 222 221 222 226 233 242 246 247 252 258 258 257 258 259 259 261 263 266 268 271 273 276 279 281 280 280 280 280 280 280 280 280 279 279 279 279 279 280 280 280 281 281 281 281 281 281 281 280 278 277 276 275 275 276 277 280 283 285 284 281
179 169 158 153 153 151 151 154 155 152 153 156 158 163 172 181 187 184 184 195 207 215 225 232 236 241 245 245 244 242 245 254 266 273 269 264 263 265 266 268 268 270 272 274 276 277 278 279 281 282 282 282 282 281 281 281 281 281 281 280 281 281 281 282 282 283 284 284 285 286 286 285 283 281 281 281 280 279 278 279 280 283 284 284 280
177 168 162 160 160 160 160 161 160 162 168 175 185 196 204 215 226 230 230 233 234 235 239 243 245 249 253 256 256 253 255 263 271 268 266 267 270 272 273 274 275 276 277 276 276 276 277 278 279 281 282 283 283 283 283 283 283 284 284 285 286 286 286 287 287 287 287 288 289 291 292 291 290 288 288 287 285 284 282 280 279 279 279 280 280
174 172 172 171 170 171 172 172 172 176 183 192 205 218 227 234 237 240 243 245 246 248 252 254 255 258 262 264 264 266 270 274 269 267 270 274 275 276 276 277 277 278 278 278 277 277 278 278 279 280 281 282 283 284 284 285 285 286 286 286 287 288 289 289 290 289 288 289 290 293 295 295 293 290 289 287 287 285 283 281 278 277 277 278 279
180 180 179 177 176 178 179 181 184 190 198 209 220 226 230 234 237 240 244 247 250 253 257 261 263 266 269 270 271 274 275 273 270 270 273 274 274 275 276 276 276 276 277 277 277 277 277 277 277 278 279 280 281 282 283 284 285 286 288 289 290 290 291 291 290 290 290 292 294 294 295 294 292 289 287 287 286 285 284 281 278 276 277 277 277
201 198 191 184 183 186 190 195 201 210 219 226 232 234 237 240 243 246 248 251 253 255 258 261 265 268 268 270 273 275 274 273 272 273 273 274 276 277 277 277 278 278 279 280 281 281 282 282 282 282 283 284 286 287 288 291 293 294 294 295 294 293 292 292 291 292 293 295 296 294 291 288 286 285 285 285 285 285 283 280 277 276 274 274 275
213 211 206 199 195 196 201 208 214 222 232 239 242 246 249 251 254 255 255 257 258 258 258 259 262 264 265 267 272 275 276 276 277 277 277 277 278 278 279 281 283 284 285 286 287 288 289 290 290 291 291 290 291 293 296 298 298 296 294 293 292 291 291 291 291 293 295 297 296 295 291 288 285 284 283 283 284 284 281 279 278 277 275 274 275
223 223 217 209 203 199 202 214 223 227 232 237 240 243 246 248 250 251 252 254 255 256 257 258 260 262 264 267 270 273 276 278 277 278 279 280 280 281 284 285 286 288 289 290 290 291 292 294 295 295 293 292 293 297 299 298 296 295 294 293 293 294 295 296 297 299 300 299 299 297 294 292 291 288 284 283 283 283 282 280 279 278 277 277 278
311 304 294 283 267 243 226 229 236 238 237 238 239 242 245 247 249 251 252 253 254 255 256 258 260 261 264 266 269 271 274 277 279 279 280 281 281 282 282 284 285 287 289 290 292 293 293 294 294 293 293 295 298 302 303 301 300 300 300 300 300 301 301 302 304 304 303 301 300 298 296 294 293 290 286 284 282 280 280 279 280 280 281 282 283
278 275 278 278 271 258 244 238 239 242 247 251 253 256 260 263 263 261 258 256 255 254 254 255 258 261 263 265 268 270 271 272 274 275 276 277 279 281 283 285 287 289 290 291 292 293 294 295 296 298 300 302 306 307 307 305 304 304 303 304 305 305 305 306 307 306 304 302 300 299 298 296 292 289 286 283 281 279 279 280 282 283 284 285 286
262 253 253 252 250 249 250 251 250 248 251 256 258 261 264 263 259 257 256 253 251 251 252 254 255 256 259 260 260 263 266 269 272 276 280 285 289 291 292 294 295 295 296 297 297 299 301 302 304 305 306 307 308 308 308 306 304 303 303 304 305 306 307 308 308 306 304 304 303 301 299 296 293 289 287 285 283 283 282 283 284 286 287 288 287
258 256 255 255 256 256 255 254 252 252 256 257 255 257 258 254 247 242 241 244 247 249 250 251 248 247 253 259 263 268 275 281 286 290 294 298 299 299 299 299 301 302 303 304 305 306 306 307 307 307 307 307 307 306 305 304 303 303 303 305 305 306 306 307 306 306 306 305 304 302 300 299 298 296 293 293 294 295 294 292 291 292 292 289 284
269 269 268 267 267 266 262 254 250 251 254 253 248 247 247 244 240 237 238 244 251 252 247 245 248 255 262 268 275 280 285 287 290 295 299 301 303 305 306 307 308 308 308 307 307 306 306 306 305 305 305 305 305 304 304 303 304 304 304 305 306 306 305 305 305 306 305 305 304 304 305 305 305 305 305 306 307 307 305 299 292 287 285 280 273
291 293 289 284 283 281 278 272 267 267 266 263 262 260 252 245 247 254 257 258 261 262 258 249 248 259 267 270 271 273 278 283 288 293 297 300 302 303 304 304 304 304 304 304 305 305 306 306 306 306 306 306 306 305 305 305 305 305 306 307 308 306 304 304 305 306 307 307 305 305 309 314 318 320 321 318 311 302 298 292 282 276 275 273 270
292 291 287 287 290 289 287 286 283 281 278 278 281 283 277 268 267 271 271 259 252 261 269 266 246 246 256 260 259 261 267 274 281 286 291 294 297 297 298 300 301 303 306 308 309 310 310 310 310 310 309 309 309 308 308 307 307 307 308 309 307 305 305 307 308 309 310 308 306 310 323 333 333 330 325 317 305 294 290 286 279 276 279 283 285
285 281 278 278 278 277 279 278 272 268 269 271 273 272 269 267 265 264 261 251 248 257 268 271 253 244 248 249 249 254 265 275 283 289 292 294 296 298 301 305 309 312 314 314 314 313 312 312 313 312 312 312 312 311 311 310 310 310 310 309 307 308 311 313 314 315 319 327 331 337 341 338 332 331 329 324 314 305 298 289 282 282 289 299 303
269 263 263 266 267 266 265 262 260 260 263 265 263 260 259 257 255 254 251 246 247 253 259 259 249 244 246 249 252 261 276 284 288 291 295 298 304 308 313 315 316 316 316 315 314 314 314 315 316 316 315 315 316 315 315 314 313 312 312 313 317 322 326 326 323 326 342 359 359 351 346 342 341 345 344 338 332 329 324 316 312 310 309 310 310
265 258 256 259 260 258 255 253 254 256 259 260 258 255 251 249 251 252 248 244 246 247 245 244 245 244 247 257 267 275 281 283 288 296 304 311 316 316 316 317 317 317 317 317 317 317 318 319 320 320 320 321 322 321 318 315 315 316 320 329 339 342 343 341 337 335 341 346 340 338 339 338 335 333 328 324 324 326 323 321 323 321 312 301 291
283 282 280 279 278 274 268 263 260 258 260 263 263 260 255 252 253 255 251 245 244 242 238 238 245 251 257 265 271 274 274 276 289 306 314 317 318 318 320 321 322 322 322 322 323 323 323 325 326 327 328 329 329 326 320 316 317 323 333 342 345 343 343 343 341 335 326 317 312 312 311 311 311 312 311 311 313 313 313 317 323 322 311 297 286
284 289 292 296 301 303 293 282 277 280 284 280 269 261 259 255 253 254 253 249 246 245 241 240 247 257 263 263 254 246 251 272 299 314 322 325 326 327 327 327 327 328 328 328 327 328 328 330 332 335 336 337 336 333 326 318 317 322 331 337 338 336 335 333 330 329 326 320 317 318 318 321 323 323 321 322 323 323 324 326 327 325 321 313 306
282 288 293 298 305 309 298 287 288 296 298 288 273 261 258 256 252 252 254 254 252 249 246 246 253 257 253 238 216 212 229 273 313 328 336 337 336 335 335 334 335 336 335 333 331 331 331 331 334 339 343 344 344 343 337 327 319 318 325 331 332 333 333 331 328 330 333 332 332 332 331 331 330 328 329 333 335 334 333 329 324 322 323 320 317
279 282 284 292 303 306 290 286 294 303 292 279 273 263 256 255 254 253 253 254 253 253 254 257 255 244 224 207 201 205 226 315 340 342 344 342 340 341 342 343 342 342 340 338 334 332 331 330 330 334 342 347 349 351 349 343 330 321 323 329 332 333 337 338 336 335 335 334 333 332 332 332 331 329 333 339 339 337 337 329 318 316 315 306 302
271 277 281 289 298 292 270 280 298 309 294 278 275 268 261 259 257 255 255 255 256 258 260 255 241 220 205 203 204 200 222 330 340 342 343 344 345 346 347 348 348 347 345 343 338 334 332 330 324 320 324 332 336 342 348 351 345 339 340 342 343 343 342 340 337 335 334 331 330 331 333 336 337 336 341 347 349 348 349 340 325 322 320 311 304
262 271 278 284 290 288 280 286 297 300 288 282 284 279 270 266 262 258 256 255 256 256 251 238 221 207 202 204 204 206 246 313 333 341 345 348 350 351 351 351 352 353 351 348 344 341 340 339 332 319 311 317 324 330 335 339 340 341 341 341 341 341 340 339 339 338 336 333 332 334 338 343 344 340 340 344 348 351 352 346 336 333 331 323 319
257 266 274 279 284 290 294 297 298 292 282 283 293 295 287 276 268 262 257 252 248 242 228 215 209 206 202 201 204 218 239 292 326 339 352 358 358 358 357 357 358 359 358 355 351 348 347 350 351 345 333 328 328 331 333 334 334 334 335 336 336 337 339 340 340 340 339 338 338 339 340 342 341 336 333 337 343 346 347 341 333 329 325 320 321
257 261 267 274 281 289 296 296 294 291 284 276 276 285 290 283 269 259 249 239 229 217 206 203 205 204 203 203 210 225 240 286 335 349 3 10 8 5 5 5 6 7 7 5 3 1 358 358 360 359 354 347 341 337 336 335 334 334 334 336 339 341 343 344 344 344 346 346 344 340 337 335 334 333 334 336 339 341 341 340 335 328 323 320 320
262 261 262 268 276 286 290 285 284 290 294 288 276 272 278 278 267 251 234 222 212 203 200 202 204 205 207 209 211 221 238 271 3 12 13 17 19 16 12 12 15 17 17 17 17 15 13 11 8 6 3 358 353 348 345 342 341 341 341 343 345 347 348 350 350 350 350 348 344 339 334 332 331 333 336 339 342 343 343 343 337 328 323 323 322
259 260 261 263 267 276 284 283 279 279 283 288 291 290 285 276 261 243 227 216 208 203 201 201 201 202 208 214 213 213 219 220 52 37 25 23 25 24 19 19 22 23 22 24 24 23 21 21 18 16 14 12 9 6 2 358 355 354 352 351 352 353 352 353 353 353 352 350 348 344 343 342 343 344 347 352 354 351 343 335 329 325 324 325 326
Height
3100 3100 3100 3102 3103 3105 3106 3108 3110 3113 3117 3120 3122 3124 3126 3127 3129 3131 3132 3134 3136 3137 3138 3138 3139 3140 3140 3141 3142 3143 3143 3144 3145 3146 3146 3147 3148 3149 3150 3150 3151 3152 3153 3154 3154 3155 3156 3157 3158 3159 3160 3161 3162 3163 3164 3165 3165 3167 3167 3168 3168 3168 3168 3168 3168 3168 3168 3168 3168 3168 3168 3168 3169 3169 3169 3169 3169 3169 3169 3170 3170 3170 3170 3170 3170
3100 3100 3101 3102 3104 3105 3106 3107 3109 3112 3116 3119 3121 3123 3125 3126 3128 3130 3132 3133 3135 3136 3137 3138 3139 3139 3140 3141 3141 3142 3143 3144 3144 3145 3145 3146 3147 3148 3149 3149 3150 3152 3153 3153 3154 3154 3155 3156 3157 3158 3160 3161 3162 3163 3164 3165 3165 3166 3167 3167 3168 3168 3167 3167 3168 3168 3168 3168 3168 3167 3168 3168 3168 3168 3168 3168 3169 3169 3169 3169 3169 3169 3169 3169 3169
3099 3100 3102 3103 3103 3103 3105 3107 3109 3111 3114 3117 3120 3122 3124 3125 3127 3129 3131 3132 3134 3135 3136 3137 3138 3139 3139 3140 3141 3142 3142 3143 3144 3144 3145 3146 3146 3147 3148 3149 3150 3151 3152 3153 3153 3154 3154 3155 3157 3158 3159 3160 3161 3163 3163 3164 3165 3166 3167 3167 3168 3168 3167 3167 3167 3168 3168 3168 3167 3167 3168 3167 3167 3168 3168 3168 3168 3168 3169 3168 3168 3168 3168 3168 3168
3097 3100 3101 3101 3100 3101 3103 3105 3108 3110 3113 3116 3118 3121 3123 3125 3127 3128 3130 3131 3132 3134 3135 3136 3137 3138 3139 3140 3140 3141 3142 3142 3143 3144 3144 3145 3146 3147 3148 3148 3149 3150 3151 3152 3153 3153 3154 3155 3156 3157 3159 3160 3161 3162 3163 3164 3164 3165 3166 3167 3167 3167 3167 3166 3167 3167 3167 3168 3167 3167 3167 3167 3166 3166 3167 3167 3167 3167 3167 3167 3167 3166 3166 3166 3167
3096 3099 3098 3096 3096 3099 3102 3104 3106 3109 3111 3114 3117 3119 3122 3124 3125 3127 3128 3130 3131 3133 3134 3135 3136 3137 3138 3139 3140 3140 3141 3142 3142 3143 3144 3144 3145 3146 3147 3148 3149 3150 3151 3152 3153 3153 3154 3155 3156 3157 3158 3159 3161 3162 3163 3164 3164 3164 3165 3166 3166 3167 3167 3167 3166 3166 3167 3167 3167 3166 3166 3167 3167 3166 3165 3166 3167 3166 3165 3165 3165 3165 3164 3164 3165
3095 3097 3096 3095 3096 3098 3100 3103 3105 3108 3110 3113 3116 3118 3120 3122 3124 3125 3127 3129 3130 3132 3133 3134 3135 3136 3137 3138 3139 3140 3140 3141 3141 3142 3143 3144 3145 3146 3147 3148 3148 3149 3150 3151 3152 3153 3154 3155 3156 3157 3158 3159 3160 3161 3162 3163 3163 3164 3164 3164 3165 3166 3166 3166 3166 3166 3166 3166 3166 3166 3165 3166 3167 3166 3165 3164 3165 3165 3164 3163 3163 3162 3162 3162 3163
3094 3095 3095 3096 3097 3097 3100 3102 3104 3107 3110 3112 3114 3117 3119 3121 3123 3124 3126 3128 3129 3130 3132 3133 3134 3135 3136 3137 3138 3139 3140 3140 3141 3141 3142 3143 3144 3145 3146 3147 3148 3149 3150 3151 3152 3152 3153 3154 3155 3156 3157 3158 3159 3160 3161 3162 3162 3163 3164 3163 3163 3164 3165 3166 3166 3166 3165 3166 3166 3166 3165 3164 3165 3166 3166 3164 3163 3162 3162 3162 3161 3160 3159 3159 3159
3091 3092 3093 3095 3095 3097 3100 3102 3104 3106 3109 3111 3112 3115 3118 3120 3122 3124 3125 3127 3128 3129 3131 3131 3132 3134 3135 3136 3137 3138 3139 3140 3140 3141 3141 3142 3143 3144 3146 3147 3148 3149 3150 3150 3151 3152 3152 3153 3154 3155 3156 3157 3158 3159 3160 3162 3162 3163 3163 3163 3162 3164 3165 3165 3165 3165 3165 3165 3165 3165 3165 3164 3163 3164 3164 3163 3162 3161 3160 3159 3159 3159 3158 3156 3156
3089 3089 3090 3093 3095 3097 3099 3101 3103 3105 3108 3110 3111 3114 3117 3119 3121 3123 3124 3126 3127 3128 3129 3130 3131 3132 3133 3134 3136 3138 3139 3139 3140 3140 3141 3141 3142 3144 3145 3146 3147 3148 3149 3150 3151 3151 3152 3153 3154 3155 3156 3157 3158 3159 3160 3161 3161 3162 3163 3162 3162 3163 3164 3164 3164 3164 3164 3163 3163 3163 3163 3163 3163 3163 3162 3162 3161 3161 3160 3159 3158 3158 3157 3156 3154
3086 3087 3088 3091 3093 3096 3098 3099 3101 3104 3107 3109 3110 3114 3116 3118 3120 3122 3123 3125 3126 3127 3128 3129 3130 3130 3131 3133 3135 3137 3138 3139 3139 3140 3140 3141 3142 3143 3144 3145 3147 3147 3148 3149 3150 3150 3151 3152 3153 3154 3155 3156 3157 3158 3158 3159 3159 3160 3161 3162 3162 3162 3162 3162 3162 3162 3162 3162 3162 3161 3161 3161 3161 3161 3160 3160 3160 3160 3159 3158 3157 3156 3155 3155 3153
3084 3085 3087 3090 3093 3095 3096 3098 3100 3103 3105 3107 3110 3113 3115 3117 3118 3120 3121 3123 3124 3124 3125 3127 3127 3128 3130 3133 3134 3135 3137 3137 3138 3139 3140 3140 3141 3142 3143 3144 3146 3147 3147 3148 3149 3150 3151 3152 3152 3153 3154 3154 3155 3156 3156 3157 3157 3158 3158 3159 3159 3159 3160 3160 3160 3160 3160 3160 3160 3160 3160 3160 3159 3158 3158 3158 3157 3157 3156 3156 3155 3154 3153 3152 3152
3083 3085 3086 3089 3092 3093 3095 3097 3100 3101 3104 3106 3109 3111 3112 3114 3115 3117 3119 3120 3121 3122 3124 3126 3127 3128 3130 3131 3133 3134 3135 3136 3137 3138 3139 3140 3140 3141 3142 3143 3144 3145 3146 3147 3148 3149 3149 3150 3151 3151 3152 3153 3153 3154 3154 3154 3155 3155 3155 3156 3156 3156 3156 3157 3157 3157 3157 3157 3158 3158 3158 3157 3157 3156 3156 3155 3155 3154 3154 3153 3152 3152 3151 3150 3149
3083 3085 3086 3088 3090 3091 3093 3096 3098 3100 3102 3104 3106 3107 3109 3111 3112 3115 3118 3119 3120 3122 3124 3125 3126 3127 3128 3130 3131 3132 3133 3134 3135 3136 3137 3138 3139 3140 3141 3142 3142 3143 3144 3146 3147 3147 3148 3148 3148 3149 3150 3151 3152 3152 3152 3153 3153 3153 3154 3154 3154 3155 3155 3154 3154 3154 3154 3154 3155 3155 3155 3154 3154 3154 3153 3152 3152 3152 3151 3150 3149 3148 3148 3147 3146
3082 3084 3086 3088 3089 3091 3093 3095 3097 3098 3100 3102 3104 3106 3109 3110 3112 3114 3116 3117 3119 3121 3122 3123 3124 3125 3127 3128 3129 3131 3132 3133 3134 3135 3136 3137 3137 3138 3140 3140 3141 3142 3142 3143 3144 3145 3146 3146 3145 3146 3148 3149 3149 3149 3149 3150 3151 3151 3151 3152 3152 3152 3152 3153 3152 3152 3151 3151 3151 3152 3152 3151 3151 3151 3150 3149 3149 3148 3148 3147 3146 3145 3144 3143 3142
3081 3083 3085 3088 3089 3091 3093 3095 3096 3097 3098 3101 3104 3105 3107 3109 3110 3112 3114 3115 3117 3119 3119 3120 3121 3123 3124 3125 3127 3128 3129 3130 3132 3133 3134 3135 3136 3136 3138 3139 3139 3139 3140 3140 3141 3141 3142 3143 3142 3144 3146 3146 3147 3147 3147 3148 3148 3148 3148 3149 3149 3149 3149 3150 3149 3148 3148 3148 3147 3148 3148 3148 3147 3147 3147 3146 3145 3144 3144 3143 3142 3142 3141 3140 3138
3081 3083 3084 3086 3088 3090 3092 3094 3095 3096 3098 3099 3101 3103 3105 3106 3107 3109 3111 3113 3114 3116 3117 3118 3119 3120 3122 3123 3124 3126 3127 3128 3129 3130 3131 3132 3133 3134 3135 3136 3136 3136 3137 3138 3138 3139 3140 3140 3140 3141 3143 3145 3145 3145 3145 3145 3145 3145 3145 3145 3146 3146 3146 3146 3145 3144 3144 3144 3144 3143 3144 3144 3144 3143 3143 3142 3142 3141 3140 3139 3138 3138 3137 3136 3135
3083 3083 3084 3085 3087 3088 3090 3092 3094 3095 3096 3097 3098 3100 3102 3103 3104 3106 3108 3110 3111 3113 3114 3115 3116 3117 3118 3120 3121 3123 3124 3125 3126 3126 3127 3129 3131 3132 3133 3134 3134 3134 3135 3136 3136 3136 3137 3137 3138 3139 3141 3142 3143 3143 3143 3143 3143 3142 3142 3142 3142 3142 3142 3142 3141 3141 3141 3141 3140 3140 3140 3140 3140 3139 3139 3138 3138 3137 3136 3135 3135 3135 3133 3131 3131
3083 3083 3084 3084 3085 3086 3087 3089 3091 3093 3094 3095 3096 3098 3100 3101 3103 3104 3106 3107 3109 3110 3112 3113 3114 3114 3115 3116 3118 3119 3120 3121 3122 3123 3124 3126 3128 3130 3131 3131 3132 3133 3135 3135 3134 3134 3134 3134 3135 3136 3138 3139 3139 3139 3140 3139 3139 3138 3138 3138 3138 3138 3138 3138 3137 3137 3137 3137 3137 3137 3136 3136 3136 3135 3135 3134 3134 3133 3132 3131 3131 3130 3129 3127 3127
3082 3083 3083 3084 3084 3084 3085 3087 3089 3090 3091 3093 3094 3096 3098 3099 3101 3103 3104 3105 3107 3108 3109 3111 3112 3112 3113 3114 3115 3116 3117 3118 3119 3120 3121 3123 3125 3126 3127 3128 3130 3131 3132 3132 3132 3131 3131 3132 3133 3134 3135 3135 3136 3136 3136 3135 3135 3134 3134 3134 3133 3133 3133 3133 3133 3133 3133 3133 3132 3132 3132 3132 3131 3131 3131 3130 3130 3129 3128 3127 3127 3125 3124 3123 3122
3082 3083 3083 3084 3084 3085 3085 3086 3088 3089 3091 3092 3094 3095 3097 3098 3100 3101 3102 3104 3106 3107 3108 3109 3110 3111 3112 3113 3114 3115 3116 3116 3117 3118 3119 3121 3122 3123 3124 3125 3127 3127 3128 3129 3129 3128 3128 3129 3131 3131 3132 3132 3132 3132 3131 3131 3130 3130 3130 3129 3129 3128 3127 3128 3127 3128 3128 3127 3127 3127 3126 3126 3126 3126 3125 3125 3125 3124 3123 3122 3121 3120 3118 3117 3115
3082 3083 3084 3084 3085 3086 3086 3088 3089 3090 3091 3092 3093 3095 3096 3098 3099 3101 3102 3103 3105 3106 3108 3108 3109 3110 3111 3112 3113 3114 3114 3115 3116 3117 3118 3119 3120 3121 3122 3122 3123 3124 3125 3126 3127 3127 3125 3125 3127 3128 3128 3128 3128 3127 3127 3126 3126 3126 3126 3125 3124 3124 3123 3123 3123 3123 3122 3121 3121 3120 3120 3120 3120 3119 3119 3118 3118 3117 3117 3116 3115 3114 3113 3111 3109
3083 3083 3084 3085 3086 3087 3088 3089 3090 3091 3092 3093 3094 3095 3096 3098 3099 3100 3101 3102 3104 3106 3107 3108 3109 3110 3110 3111 3112 3113 3113 3114 3115 3115 3116 3117 3118 3119 3119 3120 3120 3122 3123 3123 3124 3124 3122 3121 3124 3125 3125 3124 3124 3123 3123 3122 3122 3122 3122 3121 3120 3119 3118 3118 3118 3117 3117 3116 3115 3114 3114 3114 3113 3113 3112 3111 3110 3109 3108 3108 3108 3107 3107 3106 3104
3083 3084 3084 3084 3086 3087 3089 3090 3091 3092 3092 3094 3095 3096 3097 3098 3099 3099 3100 3102 3103 3105 3106 3107 3108 3109 3109 3110 3111 3112 3112 3112 3113 3114 3115 3115 3116 3116 3117 3117 3118 3118 3119 3120 3120 3120 3119 3119 3120 3121 3121 3120 3120 3119 3119 3119 3118 3117 3117 3116 3115 3114 3113 3112 3112 3111 3110 3110 3109 3109 3108 3108 3107 3106 3106 3104 3103 3102 3100 3099 3099 3099 3099 3099 3098
3084 3085 3085 3085 3086 3087 3088 3090 3091 3092 3093 3094 3095 3096 3097 3098 3098 3099 3100 3101 3102 3104 3105 3106 3107 3107 3108 3109 3110 3110 3110 3110 3111 3112 3113 3113 3114 3114 3114 3115 3115 3116 3116 3116 3117 3117 3117 3116 3116 3116 3116 3116 3115 3115 3115 3114 3113 3113 3112 3111 3110 3109 3108 3107 3106 3105 3104 3104 3103 3103 3102 3102 3100 3099 3098 3097 3096 3096 3094 3093 3092 3092 3092 3092 3091
3084 3085 3085 3085 3086 3087 3088 3089 3091 3092 3093 3094 3095 3096 3097 3098 3098 3099 3100 3101 3102 3103 3104 3105 3106 3106 3106 3107 3108 3108 3108 3109 3110 3111 3110 3111 3111 3111 3112 3112 3112 3113 3113 3114 3114 3113 3113 3112 3111 3111 3111 3110 3110 3110 3109 3109 3108 3107 3106 3106 3105 3104 3103 3101 3100 3099 3098 3097 3097 3097 3096 3095 3094 3092 3091 3091 3090 3089 3088 3087 3087 3086 3087 3086 3085
3082 3083 3084 3085 3086 3087 3088 3089 3090 3092 3093 3094 3095 3096 3097 3097 3098 3099 3099 3100 3101 3102 3102 3103 3104 3104 3105 3105 3106 3106 3107 3108 3109 3108 3108 3108 3108 3109 3109 3109 3109 3109 3109 3110 3110 3109 3109 3108 3108 3107 3106 3105 3105 3105 3104 3103 3103 3102 3101 3100 3099 3098 3097 3096 3095 3094 3092 3092 3091 3091 3090 3089 3088 3087 3086 3086 3085 3084 3083 3083 3082 3082 3081 3081 3079
3081 3082 3083 3084 3085 3087 3088 3089 3090 3091 3092 3093 3094 3095 3096 3097 3097 3098 3098 3099 3100 3101 3101 3102 3102 3102 3103 3103 3103 3103 3105 3106 3106 3105 3105 3105 3106 3106 3106 3106 3106 3106 3106 3106 3106 3105 3105 3104 3104 3103 3102 3101 3100 3100 3099 3098 3098 3097 3096 3095 3094 3093 3092 3091 3090 3088 3087 3086 3087 3087 3086 3084 3083 3081 3081 3080 3079 3079 3078 3077 3077 3076 3076 3075 3074
3081 3082 3083 3083 3084 3085 3087 3088 3089 3090 3091 3092 3093 3094 3095 3095 3096 3097 3097 3098 3099 3099 3100 3100 3100 3101 3101 3100 3100 3101 3102 3103 3103 3103 3103 3103 3102 3103 3103 3103 3102 3102 3102 3102 3102 3101 3101 3101 3100 3099 3098 3097 3096 3096 3095 3094 3094 3093 3092 3091 3090 3089 3088 3086 3085 3084 3083 3083 3083 3083 3082 3080 3078 3076 3076 3075 3074 3073 3072 3072 3071 3071 3070 3069 3068
3082 3082 3083 3083 3084 3085 3086 3087 3088 3089 3090 3091 3092 3093 3093 3094 3095 3095 3096 3096 3097 3097 3098 3098 3098 3098 3098 3098 3098 3098 3099 3099 3099 3100 3100 3099 3099 3099 3099 3099 3099 3099 3098 3098 3098 3097 3097 3097 3096 3095 3095 3094 3092 3092 3091 3090 3090 3089 3088 3087 3086 3085 3084 3082 3081 3080 3080 3079 3079 3078 3077 3075 3074 3072 3071 3070 3069 3069 3067 3066 3065 3065 3064 3064 3063
3081 3082 3082 3082 3083 3084 3085 3086 3086 3087 3088 3089 3090 3090 3091 3092 3092 3093 3093 3094 3094 3095 3095 3095 3095 3096 3096 3095 3095 3095 3096 3096 3096 3096 3096 3096 3096 3096 3095 3095 3095 3095 3095 3094 3094 3093 3093 3093 3092 3091 3091 3089 3088 3088 3087 3087 3086 3085 3084 3084 3083 3082 3081 3080 3078 3077 3076 3075 3074 3073 3071 3070 3069 3067 3066 3065 3064 3064 3063 3062 3061 3060 3059 3059 3058
3080 3081 3081 3082 3082 3083 3084 3085 3086 3086 3087 3088 3088 3089 3089 3090 3090 3091 3091 3092 3092 3092 3092 3093 3093 3093 3093 3093 3093 3093 3093 3093 3093 3093 3093 3093 3093 3092 3092 3092 3092 3092 3091 3091 3091 3090 3090 3089 3088 3088 3087 3086 3085 3085 3085 3084 3083 3082 3081 3080 3079 3078 3077 3076 3075 3073 3072 3070 3069 3068 3066 3064 3063 3063 3061 3060 3059 3058 3057 3057 3056 3055 3054 3054 3053
3079 3080 3080 3081 3081 3082 3083 3084 3085 3086 3086 3086 3087 3087 3087 3088 3088 3089 3089 3089 3090 3090 3090 3090 3090 3090 3090 3090 3090 3090 3090 3090 3090 3090 3090 3090 3090 3090 3089 3089 3089 3089 3088 3088 3088 3087 3087 3086 3086 3085 3084 3083 3082 3082 3082 3081 3079 3078 3077 3076 3075 3074 3073 3072 3071 3069 3067 3066 3064 3062 3061 3060 3059 3057 3056 3056 3055 3054 3053 3052 3051 3050 3050 3050 3049
3079 3079 3080 3080 3081 3082 3083 3083 3084 3084 3085 3085 3085 3085 3085 3086 3086 3086 3086 3087 3087 3086 3086 3087 3087 3087 3087 3087 3087 3087 3087 3087 3087 3087 3087 3087 3087 3087 3087 3086 3086 3086 3086 3085 3085 3085 3084 3084 3083 3082 3081 3080 3079 3078 3078 3077 3076 3075 3073 3072 3071 3070 3068 3068 3067 3065 3063 3061 3060 3058 3056 3055 3054 3053 3052 3051 3050 3049 3049 3048 3047 3047 3046 3046 3046
3078 3079 3079 3080 3081 3081 3082 3082 3082 3083 3083 3083 3083 3083 3083 3084 3084 3084 3084 3084 3083 3083 3084 3084 3084 3084 3085 3085 3085 3085 3085 3085 3085 3085 3085 3084 3084 3084 3084 3084 3084 3083 3083 3083 3082 3082 3081 3081 3080 3079 3078 3077 3076 3075 3074 3073 3072 3071 3070 3069 3067 3066 3064 3063 3062 3061 3059 3057 3056 3054 3052 3051 3050 3049 3048 3047 3046 3046 3046 3045 3044 3044 3043 3043 3043
3077 3078 3078 3079 3079 3080 3080 3081 3081 3081 3081 3081 3081 3081 3081 3082 3082 3082 3082 3081 3081 3081 3082 3082 3082 3082 3082 3083 3083 3083 3083 3082 3082 3082 3082 3082 3082 3082 3082 3082 3082 3081 3081 3081 3080 3079 3079 3078 3077 3076 3075 3074 3073 3072 3071 3070 3069 3068 3067 3066 3064 3062 3061 3060 3058 3057 3055 3053 3052 3050 3049 3047 3046 3045 3045 3044 3044 3043 3043 3042 3042 3041 3041 3041 3040
3075 3076 3076 3077 3077 3078 3078 3079 3079 3079 3079 3080 3080 3080 3080 3080 3079 3079 3079 3079 3079 3079 3080 3080 3080 3080 3080 3080 3080 3080 3080 3080 3080 3080 3080 3080 3080 3080 3080 3080 3079 3079 3079 3078 3077 3077 3076 3075 3074 3074 3073 3072 3071 3069 3068 3067 3066 3064 3063 3062 3061 3059 3057 3056 3054 3053 3052 3050 3049 3047 3046 3045 3044 3043 3042 3041 3041 3041 3040 3040 3039 3039 3039 3039 3039
3074 3074 3074 3074 3075 3075 3076 3076 3076 3076 3076 3077 3077 3078 3078 3077 3077 3077 3077 3078 3077 3077 3077 3078 3078 3078 3078 3078 3079 3079 3079 3079 3079 3079 3079 3079 3079 3078 3078 3078 3077 3077 3076 3076 3075 3074 3074 3073 3072 3071 3070 3069 3067 3066 3065 3064 3062 3061 3060 3058 3057 3055 3054 3052 3051 3050 3048 3047 3046 3045 3044 3042 3041 3041 3040 3040 3039 3039 3039 3039 3038 3038 3038 3037 3037
3073 3072 3072 3072 3073 3073 3073 3074 3074 3074 3073 3073 3074 3075 3075 3075 3075 3075 3075 3076 3075 3075 3075 3076 3077 3077 3077 3077 3077 3077 3077 3078 3078 3078 3078 3077 3077 3077 3077 3076 3076 3075 3074 3074 3073 3072 3071 3070 3069 3067 3066 3065 3064 3063 3062 3060 3059 3058 3057 3055 3054 3052 3051 3049 3048 3047 3045 3044 3043 3042 3042 3041 3040 3040 3040 3039 3039 3038 3038 3037 3037 3037 3037 3036 3036
3071 3071 3071 3071 3071 3071 3072 3072 3072 3072 3072 3072 3073 3073 3073 3074 3074 3074 3074 3074 3074 3073 3074 3075 3075 3075 3075 3076 3076 3076 3076 3076 3076 3076 3076 3076 3075 3075 3075 3074 3073 3073 3072 3071 3070 3069 3068 3067 3066 3064 3063 3062 3061 3060 3059 3058 3056 3055 3054 3053 3051 3050 3049 3047 3046 3045 3044 3042 3042 3041 3041 3041 3040 3040 3040 3039 3039 3038 3037 3037 3036 3036 3036 3035 3035
3070 3070 3070 3070 3070 3071 3071 3071 3071 3071 3071 3071 3072 3073 3073 3073 3073 3073 3073 3073 3073 3072 3073 3074 3074 3074 3074 3074 3074 3075 3075 3075 3075 3075 3074 3074 3074 3073 3073 3072 3071 3071 3070 3069 3068 3067 3066 3065 3063 3062 3061 3060 3059 3058 3056 3055 3054 3053 3052 3051 3050 3049 3048 3046 3045 3044 3043 3042 3042 3042 3041 3041 3040 3040 3040 3039 3038 3038 3037 3037 3036 3035 3035 3034 3034
3069 3069 3069 3069 3069 3070 3070 3070 3070 3070 3070 3070 3071 3071 3071 3071 3071 3071 3071 3071 3071 3072 3072 3072 3072 3073 3073 3073 3073 3073 3073 3073 3073 3073 3073 3073 3072 3072 3071 3071 3070 3069 3068 3067 3066 3065 3064 3063 3062 3061 3059 3058 3057 3056 3055 3054 3053 3052 3051 3050 3049 3048 3047 3046 3045 3044 3043 3043 3042 3042 3041 3041 3040 3040 3039 3038 3038 3037 3036 3036 3035 3035 3034 3034 3034
3067 3067 3068 3068 3068 3068 3068 3068 3068 3068 3068 3068 3069 3069 3069 3069 3069 3069 3069 3070 3070 3070 3071 3071 3071 3072 3072 3072 3072 3072 3072 3072 3072 3072 3072 3072 3071 3071 3070 3069 3069 3068 3067 3066 3065 3064 3063 3062 3060 3059 3058 3057 3056 3055 3054 3053 3052 3051 3050 3049 3048 3048 3047 3046 3045 3044 3044 3043 3042 3042 3041 3040 3040 3039 3038 3037 3037 3036 3035 3034 3034 3034 3034 3033 3033
3066 3066 3066 3066 3066 3066 3066 3066 3065 3065 3066 3066 3066 3066 3066 3067 3067 3067 3067 3068 3069 3069 3070 3070 3070 3070 3070 3071 3071 3071 3071 3071 3071 3071 3071 3070 3070 3069 3069 3068 3067 3066 3065 3064 3063 3062 3061 3060 3059 3058 3057 3056 3055 3054 3053 3052 3051 3050 3049 3049 3048 3047 3047 3046 3045 3045 3044 3043 3042 3041 3040 3039 3038 3037 3036 3036 3035 3035 3034 3033 3032 3032 3032 3032 3032
3066 3065 3066 3066 3066 3065 3065 3064 3064 3064 3064 3064 3064 3065 3065 3065 3065 3065 3066 3067 3067 3068 3068 3069 3069 3069 3069 3069 3069 3070 3070 3070 3070 3070 3070 3069 3069 3068 3068 3067 3066 3065 3064 3063 3062 3061 3060 3059 3058 3057 3056 3055 3054 3053 3052 3051 3051 3050 3049 3049 3048 3047 3046 3045 3045 3044 3043 3042 3041 3040 3039 3039 3038 3036 3035 3035 3034 3034 3033 3032 3032 3031 3032 3031 3031
3065 3065 3065 3065 3065 3065 3064 3063 3063 3064 3064 3063 3063 3063 3063 3063 3064 3064 3064 3065 3065 3066 3066 3067 3067 3067 3068 3068 3068 3069 3069 3069 3069 3069 3069 3068 3068 3067 3066 3065 3065 3064 3063 3062 3061 3060 3059 3058 3057 3056 3056 3055 3054 3053 3052 3051 3050 3050 3049 3049 3048 3047 3046 3045 3044 3044 3043 3042 3041 3040 3039 3038 3037 3036 3035 3034 3033 3033 3033 3032 3032 3032 3032 3031 3031
3064 3064 3064 3064 3064 3065 3064 3062 3062 3062 3063 3062 3062 3062 3062 3062 3062 3062 3063 3063 3064 3064 3065 3065 3065 3066 3067 3067 3067 3068 3068 3068 3068 3068 3068 3067 3067 3066 3065 3064 3064 3063 3062 3061 3060 3059 3058 3057 3056 3056 3055 3054 3054 3053 3052 3051 3050 3050 3049 3048 3047 3046 3045 3045 3044 3043 3042 3041 3040 3039 3039 3038 3037 3036 3035 3034 3034 3033 3033 3032 3032 3032 3032 3031 3031
3062 3063 3063 3063 3063 3063 3063 3062 3061 3061 3061 3061 3061 3061 3060 3060 3060 3060 3061 3062 3062 3063 3063 3064 3064 3065 3066 3066 3067 3067 3067 3067 3067 3067 3067 3066 3066 3065 3064 3064 3063 3062 3061 3060 3059 3058 3057 3057 3056 3055 3054 3054 3053 3053 3052 3051 3050 3049 3048 3047 3046 3046 3045 3044 3043 3042 3041 3041 3040 3039 3038 3037 3037 3036 3035 3034 3034 3033 3033 3032 3032 3032 3031 3031 3031
3061 3062 3062 3062 3062 3062 3062 3061 3061 3060 3060 3060 3060 3059 3059 3059 3059 3059 3059 3060 3061 3061 3062 3063 3064 3065 3065 3066 3066 3066 3067 3067 3067 3066 3066 3065 3065 3064 3064 3063 3062 3061 3060 3059 3058 3058 3057 3056 3055 3054 3054 3053 3052 3052 3051 3050 3049 3049 3048 3047 3046 3045 3044 3043 3042 3042 3041 3040 3039 3038 3037 3037 3036 3036 3035 3034 3033 3033 3033 3032 3032 3032 3031 3031 3031
3060 3060 3061 3061 3061 3061 3061 3060 3060 3059 3059 3059 3059 3059 3058 3058 3058 3058 3058 3059 3059 3060 3061 3062 3063 3064 3065 3065 3066 3066 3066 3066 3066 3065 3065 3065 3064 3064 3063 3063 3062 3061 3060 3059 3058 3057 3056 3055 3054 3054 3053 3052 3052 3051 3050 3049 3049 3048 3047 3046 3045 3044 3044 3043 3042 3041 3040 3039 3039 3038 3037 3036 3036 3035 3035 3034 3034 3033 3032 3032 3032 3032 3032 3031 3031
3058 3059 3060 3060 3060 3060 3060 3060 3060 3059 3058 3058 3058 3058 3058 3057 3057 3057 3057 3058 3058 3059 3061 3062 3063 3064 3064 3065 3065 3065 3065 3065 3065 3065 3064 3064 3064 3064 3063 3063 3062 3061 3060 3059 3058 3057 3056 3055 3054 3054 3053 3052 3051 3051 3050 3049 3048 3047 3047 3046 3045 3044 3043 3042 3041 3040 3040 3039 3038 3038 3037 3036 3036 3035 3035 3034 3034 3033 3033 3032 3032 3032 3032 3031 3031
3057 3057 3058 3058 3058 3059 3059 3059 3059 3059 3058 3058 3057 3057 3057 3057 3057 3057 3057 3057 3058 3059 3060 3061 3062 3063 3064 3064 3065 3065 3065 3065 3064 3064 3064 3064 3064 3063 3063 3063 3062 3061 3060 3059 3058 3057 3056 3055 3054 3054 3053 3052 3051 3050 3049 3049 3048 3047 3046 3045 3044 3043 3042 3042 3041 3040 3039 3039 3038 3037 3037 3036 3036 3035 3035 3034 3034 3033 3033 3033 3032 3032 3031 3031 3030